Retour au catalogue

STARLINK-4577

ActifCommunicationsVLEO
NORAD 53564·PAYLOAD·🇺🇸 United States

Lancé Aug 19, 2022 depuis Cape Canaveral Space Force Station

Loading…

Prochains Passages (prochaines 24 heures)

TLE

FraisSource: CelesTrak SupGP

Époque: Sep 14, 2026, 20:39 UTC

1 53564C 22101AP  26257.86090278  .00038859  00000+0  11482-2 0  2578
2 53564  53.1566 270.1103 0001237  92.5066 333.4960 15.34367987    18

Suivez STARLINK-4577 en temps réel avec AllMySat

Download on the App Store